Weather reports worldwide

Advertisment
Socoa, France (7600): temperature & dewpoint: 22.10.2020 14:00:00 - 28.10.2020 14:00:00 (CET)Socoa, France (7600): wind speed & gusts: 22.10.2020 14:00:00 - 28.10.2020 14:00:00 (CET)Socoa, France (7600): wind direction: 22.10.2020 14:00:00 - 28.10.2020 14:00:00 (CET)Socoa, France (7600): reduced air pressure: 22.10.2020 14:00:00 - 28.10.2020 14:00:00 (CET)Socoa, France (7600): visibility: 22.10.2020 14:00:00 - 28.10.2020 14:00:00 (CET)Socoa, France (7600): precipitation: 22.10.2020 14:00:00 - 28.10.2020 14:00:00 (CET)
Date & Time tt [°C] td [°C] ff [km/h] ff [kn] fx [km/h] fx [kn] dd ppp [hPa] vv [km] rr [mm]
28.10.2020 14:00:00 19,6 12,1 14 8 22 12 WSW 1021,7 - 0,0
28.10.2020 13:00:00 17,1 13,0 2 1 27 15 N 1022,0 - 0,0
28.10.2020 12:00:00 17,3 13,4 8 4 16 9 W 1022,1 - 0,0
28.10.2020 11:00:00 15,8 14,0 5 3 12 7 SSW 1021,6 - 0,0
28.10.2020 10:00:00 14,6 13,3 9 5 19 10 SW 1021,2 16 0,4
28.10.2020 09:00:00 14,6 13,3 6 3 22 12 SSW 1020,4 - 0,0
28.10.2020 08:00:00 14,7 13,2 19 11 39 21 W 1019,4 - 0,0
28.10.2020 07:00:00 14,5 13,4 32 18 46 25 NW 1018,6 - 0,0
28.10.2020 06:00:00 14,1 12,8 9 5 11 6 WSW 1018,2 - 0,0
28.10.2020 05:00:00 14,1 12,5 6 3 11 6 WSW 1017,8 - 0,0
28.10.2020 04:00:00 14,9 13,3 6 3 19 10 SSW 1017,4 15 0,0
28.10.2020 03:00:00 15,3 13,8 8 4 24 13 WNW 1017,4 - 0,0
28.10.2020 02:00:00 16,0 14,2 16 8 27 14 WNW 1017,1 - 0,0
28.10.2020 01:00:00 15,5 10,5 7 4 22 12 SW 1016,9 22 0,0
28.10.2020 00:00:00 15,4 10,2 12 7 20 11 SSW 1016,1 - 0,0
27.10.2020 23:00:00 15,4 10,0 16 9 26 14 S 1015,5 - 0,0
27.10.2020 22:00:00 16,6 9,8 16 9 35 19 S 1015,2 22 0,0
27.10.2020 21:00:00 16,3 9,9 26 14 42 23 S 1014,3 - 0,0
27.10.2020 20:00:00 15,9 10,0 25 13 42 23 S 1014,2 - 0,0
27.10.2020 19:00:00 14,8 10,4 22 12 42 23 S 1014,0 20 0,0
27.10.2020 18:00:00 14,4 11,0 17 9 29 16 S 1014,1 - 0,6
27.10.2020 17:00:00 16,5 10,6 16 9 35 19 SSW 1014,5 - 0,2
27.10.2020 16:00:00 17,6 9,2 18 10 30 16 S 1013,7 20 0,0
27.10.2020 15:00:00 18,3 8,8 20 11 33 18 S 1013,7 - 0,0
27.10.2020 14:00:00 17,9 8,5 18 10 33 18 S 1014,0 - 0,0
27.10.2020 13:00:00 16,8 7,7 18 10 37 20 S 1014,8 24 0,0
27.10.2020 12:00:00 15,2 7,5 22 12 46 25 S 1015,4 - 0,0
27.10.2020 11:00:00 13,8 7,1 23 12 36 20 S 1015,9 - 0,0
27.10.2020 10:00:00 13,1 8,6 11 6 19 10 S 1016,3 20 0,0
27.10.2020 09:00:00 11,8 7,7 13 7 27 15 S 1016,2 - 0,0
27.10.2020 08:00:00 11,4 7,1 17 9 28 15 SSW 1016,0 - 0,0
27.10.2020 07:00:00 10,8 7,1 16 8 26 14 SSW 1015,9 - 0,0
27.10.2020 06:00:00 11,7 6,6 21 11 29 16 SSW 1016,1 - 0,0
27.10.2020 05:00:00 11,7 6,8 21 12 29 16 SSW 1016,1 - 0,0
27.10.2020 04:00:00 11,6 7,5 20 11 27 15 SSW 1016,5 18 0,0
27.10.2020 03:00:00 11,4 7,9 22 12 29 16 SSW 1017,0 - 0,0
27.10.2020 02:00:00 11,4 8,8 22 12 38 21 SW 1017,6 - 0,4
27.10.2020 01:00:00 11,4 9,3 18 10 38 20 SW 1017,7 18 0,2
27.10.2020 00:00:00 11,6 9,8 27 14 44 24 SW 1018,2 - 1,2
26.10.2020 23:00:00 11,3 9,4 21 11 34 19 SW 1018,0 - 0,0
26.10.2020 22:00:00 11,1 9,2 15 8 67 36 SSW 1017,9 - 2,6
26.10.2020 21:00:00 12,3 10,5 34 18 66 35 WNW 1017,8 - 0,9
26.10.2020 20:00:00 11,1 9,5 21 11 68 37 SW 1017,8 - 1,6
26.10.2020 19:00:00 12,1 10,7 40 22 68 37 WNW 1017,9 10 2,8
26.10.2020 18:00:00 12,2 9,0 32 17 68 37 SW 1016,7 - 0,0
26.10.2020 17:00:00 13,6 9,4 41 22 70 38 W 1016,5 - 0,0
26.10.2020 16:00:00 12,7 10,1 37 20 69 37 W 1016,1 10 1,0
26.10.2020 15:00:00 13,7 9,9 34 18 75 41 WSW 1016,0 - 0,0
26.10.2020 14:00:00 14,1 10,7 44 24 68 37 W 1016,0 - 1,0
26.10.2020 13:00:00 11,3 9,2 20 11 43 23 WSW 1016,3 10 4,9
26.10.2020 12:00:00 12,5 9,1 26 14 71 38 SW 1016,0 - 0,0
26.10.2020 11:00:00 10,9 10,0 23 13 47 25 SW 1015,9 - 3,0
26.10.2020 10:00:00 9,7 8,5 20 11 46 25 SW 1015,2 10 2,0
26.10.2020 09:00:00 9,5 8,3 20 11 44 24 SSW 1014,5 - 1,7
26.10.2020 08:00:00 9,7 8,8 27 15 42 23 SSW 1013,9 - 3,2
26.10.2020 07:00:00 9,7 8,8 23 13 42 23 SW 1013,3 12 3,2
26.10.2020 06:00:00 9,1 7,7 19 10 46 25 SW 1013,2 - 4,9
26.10.2020 05:00:00 10,0 8,9 17 9 46 25 SSW 1012,0 - 2,6
26.10.2020 04:00:00 10,3 8,7 36 20 56 30 WSW 1011,8 12 2,0
26.10.2020 03:00:00 10,5 8,8 31 17 62 34 SW 1011,4 - 2,6
26.10.2020 02:00:00 10,5 9,1 16 8 54 29 SSW 1011,8 - 4,7
26.10.2020 01:00:00 11,3 9,4 46 25 61 33 WNW 1012,1 - 2,8
26.10.2020 00:00:00 10,9 8,5 19 11 28 15 SSW 1011,3 - 0,0
25.10.2020 23:00:00 11,0 9,1 21 11 35 19 SSW 1011,4 - 0,0
25.10.2020 22:00:00 10,9 9,3 23 12 36 19 SSW 1011,4 12 1,4
25.10.2020 21:00:00 11,1 9,8 22 12 32 17 SSW 1011,5 - 1,0
25.10.2020 20:00:00 11,5 10,2 23 12 33 18 SW 1011,4 - 1,0
25.10.2020 19:00:00 11,8 10,7 14 8 26 14 SSW 1010,9 - 1,4
25.10.2020 18:00:00 12,4 11,1 19 11 54 29 WSW 1010,9 - 4,3
25.10.2020 17:00:00 13,0 12,2 27 15 66 35 W 1010,0 - 6,4
25.10.2020 16:00:00 13,8 13,0 36 20 54 29 W 1009,6 12 6,9
25.10.2020 15:00:00 14,8 13,2 36 20 45 24 NW 1008,5 - 0,8
25.10.2020 14:00:00 15,4 13,2 10 5 13 7 E 1008,0 - 0,0
25.10.2020 13:00:00 15,0 12,9 6 3 18 10 NNW 1009,5 15 0,0
25.10.2020 12:00:00 15,1 13,3 9 5 26 14 WNW 1010,5 - 0,0
25.10.2020 11:00:00 15,0 12,9 18 10 28 15 WNW 1011,3 - 0,0
25.10.2020 10:00:00 15,6 13,4 16 8 44 24 W 1011,4 - 0,4
25.10.2020 09:00:00 17,9 12,6 22 12 44 24 SW 1011,6 - 0,0
25.10.2020 08:00:00 18,6 8,5 24 13 54 29 SSW 1009,9 - 0,2
25.10.2020 07:00:00 18,5 7,9 28 15 72 39 S 1009,1 18 0,0
25.10.2020 06:00:00 18,3 8,0 49 27 74 40 S 1008,2 - 0,0
25.10.2020 05:00:00 18,6 8,0 31 17 58 31 S 1008,7 - 0,0
25.10.2020 04:00:00 17,9 7,9 41 22 64 34 S 1009,6 - 0,0
25.10.2020 03:00:00 18,5 7,6 40 22 74 40 S 1010,8 - 0,0
25.10.2020 02:00:00 18,3 7,4 26 14 53 28 S 1011,6 - 0,0
25.10.2020 01:00:00 - - - - - - - - - -
25.10.2020 00:00:00 19,0 7,4 23 13 39 21 S 1013,3 - 0,0
24.10.2020 23:00:00 18,5 7,6 21 11 39 21 S 1014,1 - 0,0
24.10.2020 22:00:00 18,4 7,5 19 10 41 22 S 1014,7 - 0,0
24.10.2020 21:00:00 17,8 7,5 22 12 40 22 SSW 1015,2 - 0,0
24.10.2020 20:00:00 17,5 7,8 14 8 30 16 SSW 1016,0 - 0,0
24.10.2020 19:00:00 15,6 9,0 11 6 17 9 S 1016,1 25 0,0
24.10.2020 18:00:00 17,8 8,4 11 6 24 13 SSW 1016,2 - 0,0
24.10.2020 17:00:00 19,5 8,5 14 7 29 16 S 1016,7 - 0,0
24.10.2020 16:00:00 20,6 8,9 17 9 36 20 SE 1017,1 30 0,0
24.10.2020 15:00:00 20,6 9,2 12 7 34 18 SSE 1018,0 - 0,0
24.10.2020 14:00:00 21,2 9,1 16 9 31 17 SSE 1018,9 - 0,0
24.10.2020 13:00:00 21,4 9,0 8 5 27 14 SSE 1019,9 - 0,0
24.10.2020 12:00:00 19,6 9,2 16 9 29 16 S 1020,8 - 0,0
24.10.2020 11:00:00 17,8 8,9 19 10 36 20 S 1021,4 - 0,0
24.10.2020 10:00:00 15,8 8,8 21 11 36 19 S 1021,9 - 0,0
24.10.2020 09:00:00 14,1 8,3 22 12 35 19 S 1022,0 - 0,0
24.10.2020 08:00:00 11,8 8,3 19 10 26 14 S 1021,8 - 0,0
24.10.2020 07:00:00 11,5 8,5 17 9 24 13 S 1021,9 18 0,0
24.10.2020 06:00:00 12,0 8,8 15 8 24 13 S 1022,3 - 0,0
24.10.2020 05:00:00 11,7 9,1 17 9 23 12 S 1022,3 - 0,0
24.10.2020 04:00:00 12,3 9,3 17 9 33 18 S 1022,6 - 0,0
24.10.2020 03:00:00 13,0 9,6 24 13 33 18 S 1023,0 - 0,0
24.10.2020 02:00:00 12,8 10,0 20 11 32 17 S 1023,3 - 0,0
24.10.2020 01:00:00 13,0 10,5 19 11 29 15 S 1023,3 18 0,0
24.10.2020 00:00:00 13,1 11,3 16 9 19 10 S 1023,7 - 0,0
23.10.2020 23:00:00 13,0 11,4 14 8 16 9 S 1023,8 - 0,0
23.10.2020 22:00:00 13,7 12,3 11 6 16 9 S 1023,7 - 0,0
23.10.2020 21:00:00 14,2 11,9 11 6 19 10 SSW 1023,3 - 0,0
23.10.2020 20:00:00 14,9 12,2 11 6 31 17 SW 1023,1 - 0,0
23.10.2020 19:00:00 15,8 12,7 25 14 35 19 W 1022,7 20 0,2
23.10.2020 18:00:00 15,9 12,8 23 12 46 25 W 1022,1 - 0,0
23.10.2020 17:00:00 16,4 12,4 38 21 45 24 W 1021,4 - 0,0
23.10.2020 16:00:00 18,7 12,0 16 9 25 13 W 1021,0 30 0,0
23.10.2020 15:00:00 17,3 12,2 15 8 28 15 W 1020,6 - 0,0
23.10.2020 14:00:00 18,5 13,1 20 11 28 15 W 1020,1 - 0,0
23.10.2020 13:00:00 17,7 12,8 19 10 26 14 W 1020,2 26 0,0
23.10.2020 12:00:00 17,1 13,6 23 12 38 20 NW 1019,9 - 0,0
23.10.2020 11:00:00 18,9 14,2 10 5 19 10 W 1019,2 - 0,0
23.10.2020 10:00:00 17,6 13,5 9 5 21 11 SW 1018,7 - 0,0
23.10.2020 09:00:00 16,8 13,3 11 6 21 11 SW 1017,7 - 0,0
23.10.2020 08:00:00 14,4 12,1 15 8 21 11 SW 1016,7 - 0,0
23.10.2020 07:00:00 14,8 12,3 12 7 22 12 W 1016,1 15 0,0
23.10.2020 06:00:00 15,0 13,2 12 7 15 8 SW 1015,8 - 0,4
23.10.2020 05:00:00 15,6 14,1 8 4 10 5 S 1015,0 - 0,0
23.10.2020 04:00:00 15,7 13,5 8 5 29 15 SE 1014,9 18 0,0
23.10.2020 03:00:00 16,0 13,5 21 11 27 15 WSW 1014,6 - 0,4
23.10.2020 02:00:00 16,2 14,0 9 5 16 9 SW 1014,3 - 0,2
23.10.2020 01:00:00 16,7 13,6 13 7 19 10 SW 1013,7 - 0,2
23.10.2020 00:00:00 16,4 13,5 13 7 46 25 S 1013,5 - 0,0
22.10.2020 23:00:00 16,5 14,5 17 9 39 21 SW 1013,8 - 0,0
22.10.2020 22:00:00 16,2 15,4 13 7 22 12 W 1013,2 - 0,0
22.10.2020 21:00:00 15,8 14,8 6 3 18 10 E 1012,4 - 0,0
22.10.2020 20:00:00 16,2 15,2 15 8 24 13 ESE 1012,4 - 4,3
22.10.2020 19:00:00 16,6 15,1 12 6 56 30 W 1012,6 10 1,6
22.10.2020 18:00:00 20,2 15,0 24 13 30 16 W 1011,0 - 0,0
22.10.2020 17:00:00 22,9 12,5 13 7 29 16 S 1010,3 - 0,0
22.10.2020 16:00:00 23,4 12,4 9 5 29 16 SSE 1010,2 - 0,0
22.10.2020 15:00:00 24,3 12,3 14 8 34 19 S 1010,5 - 0,0
22.10.2020 14:00:00 24,5 13,1 9 5 40 22 S 1010,8 - 0,0

tt = temperature
td = dewpoint
ff = wind speed
fx = gusts
dd = wind direction
ppp = reduced air pressure
vv = visibility
rr = precipitation

Next stations